Weather History for Sacramento, CA

Change the Weather History Date:

Wednesday, October 2, 2013

  Actual Average Record
Temperature  
Mean Temperature 66 °F -  
Max Temperature 80 °F 83 °F 104 °F (2001)
Min Temperature 52 °F 53 °F 43 °F (1950)
Degree Days  
Heating Degree Days 0    
Cooling Degree Days 1    
Growing Degree Days 16 (Base 50)    
Moisture  
Dew Point 43 °F    
Average Humidity 53    
Maximum Humidity 83    
Minimum Humidity 23    
Precipitation  
Precipitation 0.00 in 0.01 in 0.31 in (1989)
Month to date precipitation 0.00 0.03  
Year to date precipitation 4.50 12.27  
Since 1 July precipitation 0.59 0.37  
Sea Level Pressure  
Sea Level Pressure 29.93 in    
Wind  
Wind Speed 3 mph (West)    
Max Wind Speed 10 mph    
Max Gust Speed 14 mph    
Visibility 10 miles    
Events      
T = Trace of Precipitation, MM = Missing Value Source: NWS Daily Summary

Daily Weather History Graph

Daily Weather History Graph

Search for Another Location

Airport:

Trip Planner

Search our weather history database for the weather conditions in past years. The results will help you decide how hot, cold, wet, or windy it might be!

Date:

Astronomy

Oct. 02, 2013 Rise Set
Actual Time 7:03 AM PDT 6:46 PM PDT
Civil Twilight 6:36 AM PDT 7:13 PM PDT
Nautical Twilight 6:05 AM PDT 7:43 PM PDT
Astronomical Twilight 5:34 AM PDT 8:14 PM PDT
Moon 4:42 AM PDT (10/2) 5:24 PM PDT (10/2)
Length of Visible Light 12h 36m
Length of Day
11h 43m
Waning Crescent, 6% of the Moon is Illuminated
Oct 2
Waning Crescent
Oct 4
New
Oct 11
First Quarter
Oct 18
Full
Oct 26
Last Quarter

Hourly Weather History & Observations

Time (PDT) Temp. Dew Point Humidity Pressure Visibility Wind Dir Wind Speed Gust Speed Precip Events Conditions
12:53 AM 55.0 °F 48.9 °F 80% 29.91 in 10.0 mi Calm Calm - N/A   Clear
1:53 AM 53.1 °F 48.0 °F 83% 29.92 in 10.0 mi Calm Calm - N/A   Clear
2:53 AM 55.9 °F 46.9 °F 72% 29.91 in 10.0 mi NW 4.6 mph - N/A   Clear
3:53 AM 57.0 °F 43.0 °F 59% 29.91 in 10.0 mi NW 4.6 mph - N/A   Clear
4:53 AM 55.9 °F 42.1 °F 60% 29.92 in 10.0 mi NW 4.6 mph - N/A   Clear
5:53 AM 57.0 °F 41.0 °F 55% 29.93 in 10.0 mi Calm Calm - N/A   Clear
6:53 AM 53.1 °F 43.0 °F 69% 29.94 in 10.0 mi Calm Calm - N/A   Clear
7:53 AM 53.1 °F 45.0 °F 74% 29.95 in 10.0 mi Calm Calm - N/A   Clear
8:53 AM 57.0 °F 46.0 °F 67% 29.97 in 10.0 mi Calm Calm - N/A   Clear
9:53 AM 64.0 °F 42.1 °F 45% 29.99 in 10.0 mi NNW 3.5 mph - N/A   Clear
10:53 AM 69.1 °F 39.9 °F 35% 29.99 in 10.0 mi Calm Calm - N/A   Clear
11:53 AM 73.0 °F 39.0 °F 29% 29.98 in 10.0 mi NW 4.6 mph - N/A   Clear
12:53 PM 75.0 °F 39.0 °F 27% 29.96 in 10.0 mi West 6.9 mph - N/A   Clear
1:53 PM 78.1 °F 37.9 °F 24% 29.94 in 10.0 mi West 8.1 mph - N/A   Clear
2:53 PM 79.0 °F 37.0 °F 22% 29.92 in 10.0 mi WNW 9.2 mph - N/A   Clear
3:53 PM 79.0 °F 41.0 °F 26% 29.91 in 10.0 mi South 4.6 mph - N/A   Clear
4:53 PM 78.1 °F 44.1 °F 30% 29.90 in 10.0 mi South 4.6 mph - N/A   Clear
5:53 PM 77.0 °F 44.1 °F 31% 29.91 in 10.0 mi SW 9.2 mph - N/A   Clear
6:53 PM 71.1 °F 45.0 °F 39% 29.90 in 10.0 mi SW 6.9 mph - N/A   Clear
7:53 PM 68.0 °F 44.1 °F 42% 29.91 in 10.0 mi SSW 8.1 mph - N/A   Clear
8:53 PM 64.0 °F 44.1 °F 48% 29.92 in 10.0 mi SSW 4.6 mph - N/A   Clear
9:53 PM 61.0 °F 44.1 °F 54% 29.94 in 10.0 mi Calm Calm - N/A   Clear
10:53 PM 59.0 °F 45.0 °F 60% 29.95 in 10.0 mi North 4.6 mph - N/A   Clear
11:53 PM 63.0 °F 34.0 °F 34% 29.96 in 10.0 mi North 12.7 mph - N/A   Clear